733  
ASUS44 KSHV 242210  
RWRSHV  
 
WEATHER ROUNDUP FOR THE FOUR STATE AREA  
NATIONAL WEATHER SERVICE SHREVEPORT LA  
500 PM CDT TUE APR 24 2018  
 
NOTE: "FAIR" INDICATES FEW OR NO CLOUDS BELOW 12000 FEET  
WITH NO SIGNIFICANT WEATHER AND/OR S TO VISIBILITY
.  
 
!LAZ001-LAZ014-TXZ097-242300  
SHREVEPORT...MONROE...TEXARKANA RADIOS  
 
CITY SKY/WX TMP DP RH WIND PRES REMARKS
 
SHREVEPORT N/A 80 50 34 NW9 30.00S  
MONROE N/A 77 56 48 N7 29.99F  
NATCHITOCHES N/A 79 55 43 NW7 30.00F  
TEXARKANA SUNNY 79 48 33 CALM 29.99F  

 
 
!LAZ001-LAZ014-TXZ097-242300  
OTHER LOCATIONS...  
 
CITY SKY/WX TMP DP RH WIND PRES REMARKS
 
DOWNTOWN SHV N/A 80 53 39 N8 30.00F  
BOSSIER CITY N/A 78 54 43 NW7 29.99F  
RUSTON N/A 77 50 39 NW3 30.03S  
LITTLE ROCK MOSUNNY 78 48 34 W6 29.96F  
EL DORADO N/A 79 50 36 N9 29.99S  
JACKSON CLOUDY 69 56 62 NW9 29.98F  
NEW ORLEANS N/A 80 56 43 N12 29.94F  
HOUSTON PTSUNNY 84 59 42 VRB3 29.99F  
LUFKIN SUNNY 82 54 37 VRB3 30.00F  
TYLER SUNNY 82 44 26 N8 30.01F  
DAL FT WORTH PTSUNNY 84 47 27 E6 29.99F  

 
 
!TXZ136-TXZ165-242300  
TYLER...LUFKIN RADIOS  
 
CITY SKY/WX TMP DP RH WIND PRES REMARKS
 
TYLER SUNNY 82 44 26 N8 30.01F  
GILMER CLEAR 77 47 33 NW7 30.02F  
LONGVIEW SUNNY 80 50 34 VRB7 30.00F  
LUFKIN SUNNY 82 54 37 VRB3 30.00F  

 
 
!TXZ136-TXZ165-242300  
OTHER LOCATIONS...  
 
CITY SKY/WX TMP DP RH WIND PRES REMARKS
 
NACOGDOCHES N/A 80 54 40 NW7 30.01F  
BEAUMONT N/A 83 54 36 N10 29.97F  
HOUSTON PTSUNNY 84 59 42 VRB3 29.99F  
COLLEGE STN MOSUNNY 83 57 41 W5 30.00F  
AUSTIN PTSUNNY 84 56 38 S6 29.99F  
DAL FT WORTH PTSUNNY 84 47 27 E6 29.99F  
TEXARKANA SUNNY 79 48 33 CALM 29.99F  
SHREVEPORT N/A 80 50 34 NW9 30.00S  
FORT POLK NOT AVBL  
LAKE CHARLES N/A 83 54 36 NW7 29.97F  

 
 
 
CLICK HERE TO GO TO PREVIOUS BULLETINS.

The Nexlab LA Page
The Nexlab TX Page
The Nexlab AR Page
The Nexlab OK Page Main Text Page